Theta_e
310 309 309 308 308 308 309 309 309 309 309 309 310 312 313 313 311 310 310 311 309 306 310 312 311 310 315 315 313 310 313 317 318 319 322 318 322 324 325 346 349 348 350 349 352
310 310 309 309 308 308 308 308 308 308 309 309 309 310 312 312 310 309 312 311 311 309 309 314 310 312 313 315 314 313 313 315 316 317 320 318 322 323 330 340 351 354 352 352 351
310 310 310 309 309 309 308 308 308 308 308 309 309 309 311 311 308 309 317 317 316 315 312 310 311 312 315 313 314 312 315 315 317 317 319 318 322 322 325 330 337 353 352 350 350
309 310 309 309 309 309 308 307 307 307 308 308 308 309 310 311 313 308 316 315 317 315 314 311 309 312 314 315 314 316 314 315 317 318 319 319 321 325 324 325 335 347 347 347 348
307 308 308 309 308 308 308 308 307 307 307 307 308 309 311 311 311 312 312 312 318 315 315 307 309 310 314 314 314 316 316 317 318 318 318 318 321 325 326 325 330 344 345 346 345
305 306 306 307 307 307 307 307 308 307 307 307 307 309 311 315 311 311 312 319 316 315 314 306 308 310 311 314 315 313 315 317 317 318 317 319 321 326 326 325 326 344 343 342 343
305 305 304 305 306 306 306 306 307 307 307 307 307 311 312 313 312 311 311 312 316 315 311 308 307 310 309 312 311 313 317 315 314 316 317 318 322 325 325 324 325 325 328 332 336
306 306 305 305 305 305 305 306 306 306 307 308 309 310 313 311 312 312 311 311 314 312 310 310 308 306 310 309 311 313 314 317 317 316 317 319 321 323 324 324 324 325 324 328 328
305 305 306 306 306 305 305 306 305 307 308 309 310 312 314 311 311 311 310 311 314 314 313 310 309 307 308 308 310 311 313 313 318 314 320 319 320 319 324 325 324 323 323 324 322
304 304 305 305 305 305 305 305 306 308 308 309 311 312 312 314 312 313 311 313 314 314 312 309 305 306 304 307 312 311 312 312 316 315 320 325 326 326 325 325 326 324 324 322 321
303 303 303 303 304 304 305 305 304 308 309 309 311 310 314 313 314 313 311 313 313 312 311 308 305 308 309 308 310 310 310 313 313 317 320 322 327 327 324 324 324 322 323 323 322
303 303 303 303 303 303 303 303 305 307 311 309 310 312 311 312 314 314 313 314 314 316 311 307 306 304 307 309 310 310 311 312 314 315 320 324 327 326 325 324 322 323 322 322 321
302 303 303 303 302 303 304 304 307 308 312 313 311 312 313 312 314 315 313 313 315 316 309 309 308 306 308 308 310 310 310 311 315 320 324 322 325 326 325 325 322 321 320 321 320
302 303 303 303 303 304 302 305 307 306 315 314 312 313 313 314 315 315 312 314 315 317 309 309 308 308 307 309 309 310 311 312 314 318 321 323 323 323 326 326 325 322 319 319 319
302 303 304 303 302 302 303 305 307 308 319 315 315 313 313 316 317 318 313 312 312 311 310 312 308 308 308 308 309 311 311 312 313 315 319 321 322 318 320 326 325 324 318 317 317
303 304 303 303 302 303 303 304 308 318 320 322 318 317 318 319 318 317 313 312 310 310 310 309 307 308 307 309 310 311 311 312 310 311 314 313 323 320 318 320 322 323 322 315 314
303 302 303 303 303 304 302 305 317 319 316 319 321 319 320 320 318 316 313 312 311 311 311 310 310 309 309 309 310 309 308 312 312 315 314 315 317 317 318 317 317 318 318 312 319
302 304 307 305 304 304 305 316 315 315 318 317 317 320 320 318 317 314 313 312 311 310 310 310 312 309 309 309 308 308 308 311 316 319 317 316 318 316 319 324 323 318 312 316 330
302 306 307 305 304 304 311 315 315 319 319 318 316 321 319 318 315 313 312 312 312 309 311 311 311 310 309 308 308 310 310 309 314 315 315 315 316 319 323 323 324 321 313 325 334
302 302 308 307 305 305 316 316 317 318 319 318 317 322 318 317 315 314 314 314 315 312 308 310 311 310 310 308 309 310 310 313 314 320 321 319 327 319 327 325 324 323 317 328 336
302 306 307 308 308 311 313 314 316 315 316 317 315 324 323 322 315 314 315 314 315 313 312 311 311 315 309 309 308 313 314 312 312 314 318 319 320 320 325 324 325 320 318 328 334
302 312 307 308 311 310 312 311 311 317 316 318 318 322 324 326 322 315 315 315 313 309 311 310 310 313 315 316 308 309 313 313 315 319 319 319 318 325 324 324 324 319 323 323 325
303 304 307 305 311 311 310 311 314 317 317 316 319 322 322 325 325 322 316 313 310 310 310 311 310 313 317 317 318 314 314 313 315 319 325 320 319 326 327 325 323 320 318 321 320
299 300 299 300 304 308 312 313 315 314 318 319 318 320 323 323 324 325 325 323 310 310 320 315 314 313 317 317 319 325 321 318 317 318 323 321 324 328 328 327 326 324 319 319 321
295 299 302 305 305 306 310 313 315 316 314 316 319 321 323 323 323 324 324 321 320 321 317 311 312 323 325 325 325 324 322 320 321 319 321 323 325 325 327 327 327 322 318 318 316
298 303 303 303 305 308 310 312 313 313 314 316 319 318 320 323 324 326 325 323 324 322 320 316 323 324 327 326 325 322 321 322 323 325 328 325 328 326 328 328 326 319 317 316 316
300 300 303 303 304 307 309 311 312 312 312 314 317 319 321 322 320 321 321 320 322 325 320 319 320 318 326 326 323 326 322 321 319 318 324 326 324 328 328 327 324 319 317 317 314
Wind_Speed
17 17 17 15 16 17 16 17 18 17 17 17 18 16 15 16 20 19 17 21 15 17 7 5 9 14 6 3 4 4 3 4 6 6 4 1 2 2 2 4 4 3 2 10 22
18 18 17 17 18 17 16 17 17 18 18 17 18 17 15 15 21 20 36 31 30 22 18 9 7 11 3 4 3 4 5 8 5 4 2 2 1 2 3 3 5 11 13 20 21
18 18 18 18 19 19 17 17 18 18 17 17 16 18 14 12 6 10 8 7 24 23 17 15 6 8 6 3 4 6 6 5 4 4 1 3 3 3 5 1 5 13 16 10 15
19 19 19 19 19 19 20 19 19 17 17 17 16 15 13 3 7 3 6 19 8 24 19 9 6 9 6 6 4 5 5 5 4 3 4 3 5 2 1 1 6 9 16 10 9
21 20 20 20 20 21 21 21 20 19 19 18 15 13 9 5 12 23 24 18 15 25 19 7 7 6 8 6 4 3 4 4 3 3 4 3 3 2 2 3 5 13 9 12 11
23 22 22 22 23 23 23 24 21 22 20 17 14 12 7 13 14 9 9 7 17 23 15 7 8 6 7 6 5 6 4 2 1 0 2 2 2 2 4 1 7 11 11 10 12
23 22 22 21 23 24 25 25 24 23 21 17 14 13 11 20 8 5 8 6 6 16 7 7 5 6 6 5 4 3 3 4 4 3 4 6 2 5 5 5 7 6 4 8 9
24 23 22 22 23 24 22 25 25 27 22 16 15 15 9 12 17 22 13 10 11 16 8 13 3 5 5 5 4 6 2 7 5 9 4 5 2 5 5 9 8 6 1 3 3
26 27 26 25 23 23 25 27 29 28 20 16 12 8 10 8 9 20 18 8 19 20 6 4 2 3 3 8 5 6 6 4 1 9 4 4 4 7 7 6 8 8 7 6 7
28 28 27 26 26 25 26 26 29 13 8 7 11 4 8 6 6 6 21 20 7 8 4 2 2 4 2 6 17 12 13 5 8 6 3 4 4 4 6 7 8 7 7 7 7
29 30 30 29 26 26 26 12 4 1 6 9 9 6 5 5 7 4 18 14 6 5 5 4 4 12 8 4 3 8 10 6 4 2 5 6 5 5 7 2 4 7 5 6 7
31 31 30 30 29 29 23 5 8 3 7 19 17 21 20 3 6 5 19 7 5 7 5 4 7 6 8 6 2 5 8 5 1 5 3 5 6 7 8 6 8 8 8 8 5
36 34 31 29 32 18 8 11 5 8 5 9 16 15 9 11 7 5 14 8 10 7 5 6 5 10 7 4 4 2 7 6 4 4 3 6 4 5 5 4 7 7 6 5 9
40 37 35 30 18 6 8 2 10 7 4 5 7 7 10 8 6 11 22 10 4 7 8 5 4 13 9 7 6 4 5 5 8 5 4 3 4 5 6 8 6 7 8 8 9
44 43 36 23 14 8 8 3 6 5 4 7 6 10 13 12 11 8 24 3 9 7 7 6 8 12 8 7 8 5 6 6 3 4 4 1 3 6 3 7 9 8 10 9 9
48 46 41 20 15 22 15 9 1 4 6 1 5 9 11 7 2 8 15 2 5 6 4 5 4 8 8 10 11 6 6 6 5 3 1 6 5 4 5 6 5 8 6 8 10
50 43 18 6 3 8 16 3 4 4 8 8 4 9 11 7 5 19 12 10 6 6 4 3 4 4 9 9 4 6 7 2 1 1 5 4 4 7 6 3 5 8 2 9 7
51 23 21 8 9 7 9 2 2 4 6 4 8 6 7 5 15 15 18 12 8 5 4 5 3 8 6 9 8 6 8 5 4 4 2 4 5 6 2 2 4 5 6 9 11
37 17 21 20 3 7 1 2 3 4 7 3 12 10 4 5 9 13 13 15 7 7 6 4 2 3 9 5 8 4 5 8 6 3 4 3 5 5 4 5 7 8 4 10 14
18 8 18 17 6 1 2 4 4 9 13 4 0 5 4 5 7 7 10 9 6 9 4 5 6 7 4 7 2 9 6 4 3 4 3 4 3 5 3 5 8 8 7 5 10
8 4 18 9 6 2 3 4 6 10 10 3 3 4 4 3 5 8 9 4 11 6 5 2 4 1 6 6 8 3 3 5 5 4 5 1 5 5 6 3 7 9 6 7 10
8 3 13 9 4 2 4 10 7 8 6 3 7 3 2 3 3 3 7 4 9 7 7 3 4 3 4 0 5 7 9 7 5 4 0 4 6 3 5 6 5 5 7 8 8
5 3 8 9 4 5 8 6 7 9 7 7 6 7 4 4 3 2 2 2 9 8 9 6 1 3 5 5 4 4 4 5 6 3 5 6 5 2 3 3 6 1 6 9 9
3 5 4 4 3 6 5 6 12 14 5 5 2 4 3 4 4 2 3 4 8 7 12 8 3 6 5 6 4 4 4 4 6 4 5 6 4 4 2 4 7 6 4 9 9
4 2 2 5 6 10 11 8 11 10 8 6 4 4 4 4 3 3 4 5 7 4 4 5 5 3 2 2 3 2 8 8 6 5 7 7 9 8 9 8 5 7 7 13 12
3 4 3 5 8 11 8 6 13 12 6 8 5 9 9 3 3 3 2 4 1 5 3 3 2 3 5 3 4 5 6 9 4 4 1 6 2 3 6 9 7 14 13 16 14
5 5 2 5 8 8 7 10 13 17 8 7 7 11 6 5 4 3 1 2 3 2 3 4 6 3 3 2 2 4 4 5 5 5 4 3 2 6 5 11 7 11 13 13 13
Wind_Direction
334 332 330 329 325 321 317 314 312 308 309 310 310 304 304 300 303 293 258 242 245 256 260 281 184 203 247 263 159 127 89 207 188 155 204 47 67 245 55 80 55 36 83 129 133
327 326 326 327 331 323 316 313 310 308 306 306 304 308 305 310 307 271 265 266 259 247 208 229 160 148 203 210 184 140 154 208 200 194 137 49 212 296 101 123 89 86 93 127 138
323 321 319 319 320 325 320 315 311 308 304 303 302 304 307 322 309 244 104 330 243 217 214 208 215 140 177 180 184 168 187 189 249 225 15 49 360 319 104 120 202 160 145 145 142
326 325 321 317 315 313 313 312 310 303 299 296 297 297 301 305 269 147 285 328 247 195 194 174 180 147 155 181 190 145 213 167 240 53 21 70 306 17 80 56 96 145 140 128 125
321 321 321 318 313 312 312 307 311 305 301 294 289 288 296 221 248 265 301 309 177 182 188 172 146 131 157 162 128 148 186 171 238 44 349 79 318 198 52 16 94 135 125 125 130
322 317 318 316 313 310 309 309 303 308 303 292 282 281 254 254 257 279 354 159 173 167 187 179 172 159 124 183 159 189 190 217 200 84 5 63 313 43 235 26 76 150 154 159 159
335 324 315 310 311 310 307 306 302 303 302 288 273 273 247 243 224 228 271 313 178 165 166 193 185 176 129 127 207 92 168 312 200 206 225 155 153 229 189 153 123 115 151 158 169
330 331 325 314 312 309 308 304 296 292 293 283 274 272 254 257 264 258 259 265 186 178 144 201 81 125 138 130 96 141 100 213 208 147 242 114 214 239 204 147 142 126 165 293 208
328 327 325 320 317 313 307 302 296 291 278 264 269 241 262 279 231 254 219 183 163 191 201 189 255 137 120 126 94 192 193 202 134 177 134 155 210 215 193 207 151 153 187 214 256
327 324 322 320 319 317 317 313 305 290 233 217 244 240 258 254 202 197 177 149 152 145 94 122 109 127 91 159 191 182 190 173 180 185 96 137 204 136 191 179 175 158 175 200 237
326 321 319 317 318 319 319 332 348 266 218 202 189 225 296 292 237 153 161 151 108 119 143 185 142 194 165 154 117 122 150 115 159 169 124 180 195 185 204 170 198 166 189 215 244
329 325 320 316 316 314 300 246 232 323 275 229 236 221 246 313 322 147 161 130 116 145 134 95 219 178 139 145 182 113 147 172 58 189 153 138 214 248 166 194 191 204 196 204 222
331 327 321 318 316 306 237 231 243 351 267 256 215 224 210 212 233 211 180 133 148 134 152 139 201 158 143 163 158 76 129 154 139 143 60 116 307 248 261 200 177 202 208 193 201
330 324 320 319 306 272 283 259 297 234 270 258 194 235 176 184 228 202 185 143 141 160 154 177 166 157 161 172 134 138 189 139 129 108 194 160 251 244 242 257 227 202 200 208 205
329 323 317 309 275 269 255 86 51 148 287 137 148 160 152 173 134 193 191 142 149 140 123 229 144 159 157 179 139 192 169 164 144 123 122 145 133 262 211 244 256 256 193 209 209
329 324 323 307 246 247 238 271 273 242 241 127 123 156 152 217 220 137 171 168 139 118 155 187 149 154 186 153 168 158 112 47 54 97 215 214 144 268 194 199 231 242 238 203 177
333 337 345 265 245 318 218 210 209 272 341 347 357 157 185 168 143 149 154 183 149 114 142 149 172 190 136 139 133 126 94 65 28 207 216 168 116 231 258 217 243 271 247 194 177
339 2 6 353 247 72 150 215 329 288 8 75 329 222 205 125 153 162 161 186 230 109 126 149 165 155 174 158 158 162 143 150 157 139 201 165 226 248 216 163 293 273 248 174 171
347 18 17 14 83 208 310 36 249 346 355 12 320 182 203 156 138 152 167 186 192 205 132 139 205 132 160 133 134 177 139 188 97 24 73 226 309 319 350 333 360 330 215 182 177
340 347 14 357 30 80 331 311 319 358 325 42 58 265 130 139 119 145 164 191 180 201 141 192 114 153 176 96 70 152 164 91 11 111 175 275 259 235 312 323 323 309 246 187 162
11 49 352 356 9 17 29 296 309 344 55 12 301 302 34 58 108 148 184 177 178 190 112 118 90 50 111 166 156 86 124 62 115 128 165 169 266 215 207 260 279 284 215 170 166
343 42 349 358 37 51 331 312 291 331 341 224 221 269 16 24 90 119 174 193 174 141 145 203 119 117 177 6 170 159 166 140 125 217 13 151 261 223 231 269 256 221 170 141 140
2 314 351 4 30 359 330 315 321 327 335 25 334 8 351 23 87 67 164 191 155 143 159 184 48 50 11 3 27 138 146 119 111 89 191 142 256 166 268 42 14 33 156 131 123
20 14 336 17 325 336 333 341 341 337 1 326 270 333 347 19 12 76 56 21 173 166 165 114 119 147 165 199 144 132 145 151 129 119 181 209 183 250 187 79 43 11 62 104 105
19 33 12 325 342 334 351 339 342 349 353 318 340 304 344 349 16 49 22 357 49 28 74 113 144 95 37 114 112 149 140 160 163 183 150 206 182 187 187 169 112 50 84 98 85
38 349 342 283 317 336 4 344 343 339 303 331 342 343 331 299 58 60 19 29 120 345 86 21 113 92 33 7 13 74 104 114 96 122 349 116 152 98 98 93 90 89 83 88 94
357 301 273 291 337 353 342 338 321 327 299 325 324 299 273 294 212 165 97 188 173 120 114 104 126 92 161 22 124 58 271 120 98 64 120 178 214 138 104 91 87 99 97 96 92